| time (UTC) | temp F | wind direction | speed MPH | gust MPH | rain 1hr in | rain 24hr in | rain mn in | humidity % | barometer mb |
| 20260906061513 | 76 | 96 | 5.0 | 16.0 | 0.00 | 0.00 | 0.00 | 60 | 1019.4 |
| 20260906060015 | 76 | 43 | 6.0 | 14.0 | 0.00 | 0.00 | 0.00 | 61 | 1019.2 |
| 20260906054507 | 75 | 51 | 3.0 | 11.0 | 0.00 | 0.00 | 0.00 | 64 | 1019.1 |
| 20260906053006 | 74 | 38 | 4.0 | 10.0 | 0.00 | 0.00 | 0.00 | 66 | 1019.1 |
| 20260906051601 | 73 | 35 | 5.0 | 9.0 | 0.00 | 0.00 | 0.00 | 68 | 1018.9 |
| 20260906050056 | 72 | 60 | 6.0 | 11.0 | 0.00 | 0.00 | 0.00 | 69 | 1018.7 |
| 20260906044553 | 72 | 31 | 5.0 | 10.0 | 0.00 | 0.00 | 0.00 | 71 | 1018.5 |
| 20260906043050 | 72 | 45 | 4.0 | 9.0 | 0.00 | 0.00 | 0.00 | 73 | 1018.4 |
| 20260906041550 | 72 | 49 | 3.0 | 5.0 | 0.00 | 0.00 | 0.00 | 73 | 1018.4 |
| 20260906040051 | 71 | 29 | 2.0 | 5.0 | 0.00 | 0.00 | 0.00 | 75 | 1018.3 |
| 20260906034547 | 72 | 9 | 3.0 | 6.0 | 0.00 | 0.00 | 0.00 | 75 | 1018.2 |
| 20260906033045 | 72 | 11 | 4.0 | 6.0 | 0.00 | 0.00 | 0.00 | 74 | 1018.0 |
| 20260906031544 | 72 | 19 | 3.0 | 5.0 | 0.00 | 0.00 | 0.00 | 74 | 1018.0 |
| 20260906030043 | 73 | 19 | 1.0 | 5.0 | 0.00 | 0.00 | 0.00 | 74 | 1017.8 |
| 20260906024539 | 73 | 11 | 3.0 | 5.0 | 0.00 | 0.00 | 0.00 | 71 | 1017.7 |
| 20260906023045 | 73 | 46 | 2.0 | 5.0 | 0.00 | 0.00 | 0.00 | 72 | 1017.7 |
| 20260906021538 | 73 | 21 | 3.0 | 5.0 | 0.00 | 0.00 | 0.00 | 72 | 1017.6 |
| 20260906020037 | 74 | 17 | 3.0 | 7.0 | 0.00 | 0.00 | 0.00 | 71 | 1017.6 |
| 20260906014539 | 74 | 31 | 4.0 | 7.0 | 0.00 | 0.00 | 0.00 | 70 | 1017.6 |
| 20260906013035 | 74 | 26 | 4.0 | 8.0 | 0.00 | 0.00 | 0.00 | 70 | 1017.6 |
| 20260906011534 | 73 | 29 | 2.0 | 6.0 | 0.00 | 0.00 | 0.00 | 72 | 1017.4 |
| 20260906010033 | 73 | 28 | 3.0 | 6.0 | 0.00 | 0.00 | 0.00 | 74 | 1017.4 |
| 20260906004532 | 73 | 17 | 2.0 | 4.0 | 0.00 | 0.00 | 0.00 | 74 | 1017.4 |
| 20260906003030 | 73 | 21 | 2.0 | 3.0 | 0.00 | 0.00 | 0.00 | 73 | 1017.4 |
| 20260906001529 | 73 | 23 | 2.0 | 3.0 | 0.00 | 0.00 | 0.00 | 71 | 1017.4 |
| 20260906000027 | 73 | 23 | 1.0 | 4.0 | 0.00 | 0.00 | 0.00 | 69 | 1017.3 |
| 20260905234526 | 73 | 24 | 2.0 | 5.0 | 0.00 | 0.00 | 0.00 | 68 | 1017.3 |
| 20260905233024 | 74 | 31 | 1.0 | 3.0 | 0.00 | 0.00 | 0.00 | 66 | 1017.3 |
| 20260905231520 | 75 | 31 | 2.0 | 3.0 | 0.00 | 0.00 | 0.00 | 63 | 1017.2 |
| 20260905230018 | 76 | 31 | 2.0 | 5.0 | 0.00 | 0.00 | 0.00 | 61 | 1017.1 |
| 20260905224520 | 76 | 26 | 3.0 | 5.0 | 0.00 | 0.00 | 0.00 | 61 | 1017.0 |
| 20260905223013 | 76 | 22 | 2.0 | 5.0 | 0.00 | 0.00 | 0.00 | 60 | 1016.8 |
| 20260905221528 | 76 | 45 | 4.0 | 6.0 | 0.00 | 0.00 | 0.00 | 60 | 1016.6 |
| 20260905220009 | 77 | 40 | 3.0 | 6.0 | 0.00 | 0.00 | 0.00 | 60 | 1016.6 |
| 20260905214509 | 77 | 53 | 3.0 | 6.0 | 0.00 | 0.00 | 0.00 | 60 | 1016.4 |
| 20260905213007 | 77 | 38 | 2.0 | 6.0 | 0.00 | 0.00 | 0.00 | 60 | 1016.4 |
| 20260905211507 | 77 | 53 | 4.0 | 7.0 | 0.00 | 0.00 | 0.00 | 60 | 1016.4 |
| 20260905210007 | 77 | 50 | 3.0 | 10.0 | 0.00 | 0.00 | 0.00 | 62 | 1016.4 |
| 20260905204506 | 78 | 57 | 4.0 | 8.0 | 0.00 | 0.00 | 0.00 | 64 | 1016.5 |
| 20260905203004 | 78 | 71 | 4.0 | 9.0 | 0.00 | 0.00 | 0.00 | 65 | 1016.4 |
| 20260905201503 | 77 | 65 | 4.0 | 10.0 | 0.00 | 0.00 | 0.00 | 71 | 1016.3 |
| 20260905200002 | 77 | 18 | 3.0 | 4.0 | 0.00 | 0.00 | 0.00 | 80 | 1016.1 |
| 20260905194600 | 78 | 38 | 1.0 | 3.0 | 0.00 | 0.00 | 0.00 | 81 | 1015.8 |
| 20260905193058 | 78 | 39 | 3.0 | 4.0 | 0.00 | 0.00 | 0.00 | 80 | 1015.8 |
| 20260905191557 | 79 | 76 | 1.0 | 3.0 | 0.00 | 0.00 | 0.00 | 81 | 1015.6 |
| 20260905190112 | 79 | 77 | 1.0 | 4.0 | 0.00 | 0.00 | 0.00 | 81 | 1015.4 |
| 20260905184606 | 79 | 121 | 1.0 | 3.0 | 0.00 | 0.00 | 0.00 | 79 | 1015.3 |
| 20260905183051 | 80 | 121 | 2.0 | 6.0 | 0.00 | 0.00 | 0.00 | 77 | 1015.1 |
| 20260905181550 | 81 | 163 | 2.0 | 5.0 | 0.00 | 0.00 | 0.00 | 75 | 1014.7 |
| 20260905180046 | 82 | 165 | 0.0 | 3.0 | 0.00 | 0.00 | 0.00 | 72 | 1014.6 |
| 20260905174554 | 83 | 165 | 1.0 | 5.0 | 0.00 | 0.00 | 0.00 | 70 | 1014.2 |
| 20260905173046 | 85 | 171 | 0.0 | 3.0 | 0.00 | 0.00 | 0.00 | 67 | 1014.1 |
| 20260905171544 | 86 | 163 | 2.0 | 6.0 | 0.00 | 0.00 | 0.00 | 64 | 1013.8 |
| 20260905170044 | 88 | 194 | 0.0 | 1.0 | 0.00 | 0.00 | 0.00 | 57 | 1013.7 |
| 20260905164543 | 88 | 194 | 0.0 | 3.0 | 0.00 | 0.00 | 0.00 | 56 | 1013.5 |
| 20260905163042 | 89 | 194 | 1.0 | 4.0 | 0.00 | 0.00 | 0.00 | 51 | 1013.3 |
| 20260905161642 | 89 | 194 | 2.0 | 4.0 | 0.00 | 0.00 | 0.00 | 52 | 1013.2 |
| 20260905160039 | 90 | 191 | 3.0 | 5.0 | 0.00 | 0.00 | 0.00 | 49 | 1013.2 |
| 20260905154539 | 91 | 141 | 1.0 | 5.0 | 0.00 | 0.00 | 0.00 | 49 | 1013.2 |
| 20260905153039 | 91 | 170 | 3.0 | 8.0 | 0.00 | 0.00 | 0.00 | 48 | 1013.0 |
| 20260905151538 | 90 | 93 | 2.0 | 5.0 | 0.00 | 0.00 | 0.00 | 48 | 1013.1 |
| 20260905150037 | 90 | 132 | 2.0 | 5.0 | 0.00 | 0.00 | 0.00 | 48 | 1013.1 |
| 20260905144542 | 91 | 162 | 1.0 | 7.0 | 0.00 | 0.00 | 0.00 | 49 | 1013.1 |
| 20260905143037 | 92 | 113 | 3.0 | 7.0 | 0.00 | 0.00 | 0.00 | 46 | 1013.1 |
| 20260905141540 | 91 | 190 | 3.0 | 6.0 | 0.00 | 0.00 | 0.00 | 47 | 1013.1 |
| 20260905140029 | 91 | 209 | 3.0 | 6.0 | 0.00 | 0.00 | 0.00 | 47 | 1013.2 |
| 20260905134528 | 91 | 196 | 1.0 | 6.0 | 0.00 | 0.00 | 0.00 | 47 | 1013.3 |
| 20260905133026 | 90 | 201 | 3.0 | 6.0 | 0.00 | 0.00 | 0.00 | 49 | 1013.3 |
| 20260905131541 | 90 | 146 | 4.0 | 11.0 | 0.00 | 0.00 | 0.00 | 49 | 1013.4 |
| 20260905130024 | 90 | 138 | 3.0 | 9.0 | 0.00 | 0.00 | 0.00 | 49 | 1013.5 |
| 20260905124536 | 90 | 161 | 2.0 | 9.0 | 0.00 | 0.00 | 0.00 | 48 | 1013.6 |
| 20260905123016 | 90 | 160 | 4.0 | 8.0 | 0.00 | 0.00 | 0.00 | 47 | 1013.7 |
| 20260905121522 | 89 | 133 | 2.0 | 8.0 | 0.00 | 0.00 | 0.00 | 47 | 1013.8 |
| 20260905120013 | 88 | 153 | 2.0 | 8.0 | 0.00 | 0.00 | 0.00 | 47 | 1014.0 |
| 20260905114531 | 89 | 94 | 2.0 | 9.0 | 0.00 | 0.00 | 0.00 | 45 | 1014.1 |
| 20260905113011 | 89 | 99 | 1.0 | 6.0 | 0.00 | 0.00 | 0.00 | 44 | 1014.0 |
| 20260905111510 | 88 | 175 | 4.0 | 8.0 | 0.00 | 0.00 | 0.00 | 48 | 1014.1 |
| 20260905110004 | 87 | 202 | 2.0 | 5.0 | 0.00 | 0.00 | 0.00 | 49 | 1014.1 |
| 20260905104502 | 86 | 19 | 1.0 | 4.0 | 0.00 | 0.00 | 0.00 | 46 | 1014.3 |
| 20260905103058 | 85 | 53 | 1.0 | 6.0 | 0.00 | 0.00 | 0.00 | 44 | 1014.3 |
| 20260905101618 | 83 | 123 | 2.0 | 7.0 | 0.00 | 0.00 | 0.00 | 51 | 1014.4 |
| 20260905100053 | 83 | 81 | 0.0 | 5.0 | 0.00 | 0.00 | 0.00 | 53 | 1014.4 |
| 20260905094553 | 83 | 36 | 1.0 | 4.0 | 0.00 | 0.00 | 0.00 | 52 | 1014.4 |
| 20260905093052 | 83 | 51 | 1.0 | 4.0 | 0.00 | 0.00 | 0.00 | 55 | 1014.4 |
| 20260905091549 | 83 | 121 | 0.0 | 4.0 | 0.00 | 0.00 | 0.00 | 56 | 1014.4 |
| 20260905090048 | 82 | 125 | 3.0 | 6.0 | 0.00 | 0.00 | 0.00 | 59 | 1014.2 |
| 20260905084603 | 82 | 33 | 2.0 | 6.0 | 0.00 | 0.00 | 0.00 | 60 | 1014.2 |
| 20260905083047 | 83 | 107 | 2.0 | 6.0 | 0.00 | 0.00 | 0.00 | 59 | 1014.1 |
| 20260905081545 | 83 | 94 | 2.0 | 5.0 | 0.00 | 0.00 | 0.00 | 60 | 1014.0 |
| 20260905080041 | 82 | 96 | 1.0 | 8.0 | 0.00 | 0.00 | 0.00 | 61 | 1013.9 |
| 20260905074538 | 80 | 128 | 3.0 | 8.0 | 0.00 | 0.00 | 0.00 | 64 | 1013.7 |
| 20260905073035 | 78 | 110 | 1.0 | 4.0 | 0.00 | 0.00 | 0.00 | 64 | 1013.6 |
| 20260905071529 | 76 | 15 | 2.0 | 5.0 | 0.00 | 0.00 | 0.00 | 72 | 1013.5 |
| 20260905070024 | 75 | 15 | 2.0 | 4.0 | 0.00 | 0.00 | 0.00 | 79 | 1013.6 |
| 20260905064528 | 73 | 14 | 1.0 | 4.0 | 0.00 | 0.00 | 0.00 | 81 | 1013.5 |
| 20260905063018 | 73 | 11 | 3.0 | 5.0 | 0.00 | 0.00 | 0.00 | 82 | 1013.6 |